Gatesville, TX

11:47 PM CST on December 12, 2019 (GMT -0600)
Gatesville

Weather History for KGOP - November, 2019

Change the Weather History Date:

Tuesday, November 19, 2019

  Actual Average (WUND) Record (WUND)
Temperature  
Mean Temperature 60 °F -  
Max Temperature 80 °F - - (-1)
Min Temperature 39 °F - - (-1)
Degree Days  
Heating Degree Days 6    
Growing Degree Days 10 (Base 50)    
Moisture  
Dew Point 44 °F    
Average Humidity 60    
Maximum Humidity 87    
Minimum Humidity 24    
Precipitation  
Precipitation 0.00 in - - ()
Sea Level Pressure  
Sea Level Pressure 29.97 in    
Wind  
Wind Speed 2 mph ()    
Max Wind Speed 13 mph    
Max Gust Speed 18 mph    
Visibility 10.0 miles    
Events      
Averages and records for this station are not official NWS values.
T = Trace of Precipitation, MM = Missing Value Source: Averaged Metar Reports

Daily Weather History Graph

Daily Weather History Graph

Search for Another Location

Airport or City:

Astronomy

Nov. 19, 2019 Rise Set
Actual Time 7:02 AM CST 5:30 PM CST
Civil Twilight 6:36 AM CST 5:56 PM CST
Nautical Twilight 6:06 AM CST 6:26 PM CST
Astronomical Twilight 5:37 AM CST 6:55 PM CST
Moon No Moon Rise 1:15 PM CST (11/19)
Length of Visible Light 11h 20m
Length of Day
10h 28m
Waning Gibbous, 51% of the Moon is Illuminated
Nov 19
Waning Gibbous
Nov 19
Last Quarter
Nov 26
New
Dec 4
First Quarter
Dec 11
Full

Hourly Weather History & Observations

Time (CST) Temp. Dew Point Humidity Pressure Visibility Wind Dir Wind Speed Gust Speed Precip Events Conditions
12:15 AM 50.0 °F 41.0 °F 71% 29.96 in 10.0 mi Calm Calm - N/A   Clear
12:35 AM 48.2 °F 39.2 °F 71% 29.96 in 10.0 mi Calm Calm - N/A   Clear
12:55 AM 46.4 °F 39.2 °F 76% 29.97 in 10.0 mi Calm Calm - N/A   Clear
1:15 AM 46.4 °F 39.2 °F 76% 29.96 in 10.0 mi Calm Calm - N/A   Clear
1:35 AM 46.4 °F 37.4 °F 71% 29.96 in 10.0 mi Calm Calm - N/A   Clear
1:55 AM 44.6 °F 37.4 °F 76% 29.96 in 10.0 mi Calm Calm - N/A   Clear
2:15 AM 44.6 °F 39.2 °F 81% 29.96 in 10.0 mi Calm Calm - N/A   Clear
2:35 AM 44.6 °F 37.4 °F 76% 29.96 in 10.0 mi Calm Calm - N/A   Clear
2:55 AM 44.6 °F 39.2 °F 81% 29.96 in 10.0 mi Calm Calm - N/A   Clear
3:15 AM 42.8 °F 37.4 °F 81% 29.96 in 10.0 mi Calm Calm - N/A   Clear
3:35 AM 44.6 °F 37.4 °F 76% 29.96 in 10.0 mi Calm Calm - N/A   Clear
3:55 AM 42.8 °F 35.6 °F 76% 29.96 in 10.0 mi Calm Calm - N/A   Clear
4:15 AM 42.8 °F 37.4 °F 81% 29.97 in 10.0 mi Calm Calm - N/A   Clear
4:35 AM 44.6 °F 37.4 °F 76% 29.97 in 10.0 mi Calm Calm - N/A   Clear
4:55 AM 42.8 °F 37.4 °F 81% 29.97 in 10.0 mi Calm Calm - N/A   Clear
5:15 AM 42.8 °F 37.4 °F 81% 29.98 in 10.0 mi Calm Calm - N/A   Clear
5:35 AM 42.8 °F 37.4 °F 81% 29.98 in 10.0 mi Calm Calm - N/A   Clear
5:55 AM 42.8 °F 37.4 °F 81% 29.98 in 10.0 mi Calm Calm - N/A   Clear
6:15 AM 39.2 °F 35.6 °F 87% 29.99 in 10.0 mi Calm Calm - N/A   Clear
6:35 AM 42.8 °F 37.4 °F 81% 30.00 in 10.0 mi Calm Calm - N/A   Clear
6:55 AM 41.0 °F 35.6 °F 81% 30.00 in 10.0 mi Calm Calm - N/A   Clear
7:15 AM 42.8 °F 37.4 °F 81% 30.00 in 10.0 mi Calm Calm - N/A   Clear
7:35 AM 42.8 °F 39.2 °F 87% 30.01 in 10.0 mi Calm Calm - N/A   Clear
7:55 AM 44.6 °F 41.0 °F 87% 30.01 in 10.0 mi Calm Calm - N/A   Clear
8:15 AM 50.0 °F 42.8 °F 76% 30.01 in 10.0 mi Calm Calm - N/A   Clear
8:35 AM 51.8 °F 44.6 °F 76% 30.02 in 10.0 mi Calm Calm - N/A   Clear
8:55 AM 59.0 °F 46.4 °F 63% 30.02 in 10.0 mi Calm Calm - N/A   Clear
9:15 AM 60.8 °F 46.4 °F 59% 30.02 in 10.0 mi Calm Calm - N/A   Clear
9:35 AM 66.2 °F 46.4 °F 49% 30.02 in 10.0 mi Variable 5.8 mph - N/A   Clear
9:55 AM 66.2 °F 48.2 °F 52% 30.02 in 10.0 mi SW 9.2 mph - N/A   Clear
10:15 AM 68.0 °F 48.2 °F 49% 30.02 in 10.0 mi SW 5.8 mph - N/A   Clear
10:35 AM 69.8 °F 48.2 °F 46% 30.02 in 10.0 mi Variable 6.9 mph - N/A   Clear
10:55 AM 71.6 °F 48.2 °F 43% 30.01 in 10.0 mi SSW 4.6 mph - N/A   Clear
11:15 AM 73.4 °F 48.2 °F 41% 30.00 in 10.0 mi Variable 4.6 mph - N/A   Clear
11:35 AM 75.2 °F 46.4 °F 36% 30.00 in 10.0 mi Calm Calm - N/A   Clear
11:55 AM 75.2 °F 44.6 °F 34% 29.99 in 10.0 mi SSE 4.6 mph - N/A   Clear
12:15 PM 78.8 °F 42.8 °F 28% 29.98 in 10.0 mi SSW 9.2 mph - N/A   Clear
12:35 PM 78.8 °F 42.8 °F 28% 29.97 in 10.0 mi South 9.2 mph - N/A   Clear
12:55 PM 78.8 °F 42.8 °F 28% 29.96 in 10.0 mi South 8.1 mph - N/A   Clear
1:15 PM 78.8 °F 42.8 °F 28% 29.95 in 10.0 mi SSE 6.9 mph - N/A   Clear
1:35 PM 78.8 °F 41.0 °F 26% 29.94 in 10.0 mi SSE 8.1 mph - N/A   Clear
1:55 PM 78.8 °F 44.6 °F 30% 29.94 in 10.0 mi South 11.5 mph 17.3 mph N/A   Clear
2:15 PM 78.8 °F 44.6 °F 30% 29.93 in 10.0 mi SSE 9.2 mph - N/A   Clear
2:35 PM 78.8 °F 41.0 °F 26% 29.93 in 10.0 mi South 10.4 mph 18.4 mph N/A   Clear
2:55 PM 80.6 °F 41.0 °F 24% 29.93 in 10.0 mi SSE 11.5 mph - N/A   Clear
3:15 PM 78.8 °F 42.8 °F 28% 29.92 in 10.0 mi SSE 10.4 mph - N/A   Clear
3:35 PM 78.8 °F 42.8 °F 28% 29.92 in 10.0 mi SSE 10.4 mph - N/A   Clear
3:55 PM 78.8 °F 41.0 °F 26% 29.92 in 10.0 mi South 9.2 mph 15.0 mph N/A   Clear
4:15 PM 78.8 °F 41.0 °F 26% 29.92 in 10.0 mi South 10.4 mph 17.3 mph N/A   Clear
4:35 PM 77.0 °F 42.8 °F 29% 29.92 in 10.0 mi SSE 12.7 mph - N/A   Clear
4:55 PM 75.2 °F 44.6 °F 34% 29.92 in 10.0 mi SE 9.2 mph - N/A   Clear
5:15 PM 73.4 °F 46.4 °F 38% 29.92 in 10.0 mi SE 4.6 mph - N/A   Clear
5:35 PM 69.8 °F 46.4 °F 43% 29.93 in 10.0 mi SE 4.6 mph - N/A   Clear
5:55 PM 68.0 °F 46.4 °F 46% 29.93 in 10.0 mi SE 3.5 mph - N/A   Clear
6:15 PM 66.2 °F 46.4 °F 49% 29.93 in 10.0 mi ESE 3.5 mph - N/A   Clear
6:35 PM 64.4 °F 48.2 °F 56% 29.93 in 10.0 mi SE 3.5 mph - N/A   Clear
6:55 PM 62.6 °F 48.2 °F 59% 29.94 in 10.0 mi SE 4.6 mph - N/A   Clear
7:15 PM 62.6 °F 50.0 °F 63% 29.94 in 10.0 mi SSE 5.8 mph - N/A   Clear
7:35 PM 62.6 °F 50.0 °F 63% 29.95 in 10.0 mi SSE 5.8 mph - N/A   Clear
7:55 PM 62.6 °F 50.0 °F 63% 29.95 in 10.0 mi SSE 5.8 mph - N/A   Clear
8:10 PM 60.8 °F 50.0 °F 68% 29.95 in 10.0 mi SSE 6.9 mph - N/A   Clear
8:35 PM 60.8 °F 50.0 °F 68% 29.96 in 10.0 mi SE 4.6 mph - N/A   Clear
8:55 PM 59.0 °F 50.0 °F 72% 29.95 in 10.0 mi Calm Calm - N/A   Clear
9:15 PM 59.0 °F 50.0 °F 72% 29.96 in 10.0 mi SE 4.6 mph - N/A   Clear
9:35 PM 59.0 °F 50.0 °F 72% 29.96 in 10.0 mi SE 3.5 mph - N/A   Clear
10:15 PM 59.0 °F 50.0 °F 72% 29.96 in 10.0 mi SE 4.6 mph - N/A   Clear
10:35 PM 59.0 °F 50.0 °F 72% 29.96 in 10.0 mi SE 4.6 mph - N/A   Clear
10:55 PM 59.0 °F 51.8 °F 77% 29.96 in 10.0 mi ESE 5.8 mph - N/A   Clear
11:15 PM 59.0 °F 51.8 °F 77% 29.95 in 10.0 mi SE 5.8 mph - N/A   Clear
11:35 PM 59.0 °F 51.8 °F 77% 29.95 in 10.0 mi SE 3.5 mph - N/A   Clear
11:55 PM 59.0 °F 53.6 °F 82% 29.95 in 10.0 mi SE 4.6 mph - N/A   Clear